08-03-2022, 00:00:04,     91,    2.3,    0.7,   0.00,   0.00, 1013.5,   59.3, -999.0
08-03-2022, 00:00:14,     76,    0.7,    0.8,   0.00,   0.00, 1013.4,   59.1, -999.0
08-03-2022, 00:00:24,    115,    1.1,    0.7,   0.00,   0.00, 1013.5,   59.2, -999.0
08-03-2022, 00:00:34,     98,    2.6,    0.8,   0.00,   0.00, 1013.5,   59.3, -999.0
08-03-2022, 00:00:44,    105,    2.9,    0.8,   0.00,   0.00, 1013.5,   59.4, -999.0
08-03-2022, 00:00:54,    123,    1.8,    0.8,   0.00,   0.00, 1013.5,   59.3, -999.0
08-03-2022, 00:01:04,    134,    3.4,    0.8,   0.00,   0.00, 1013.5,   59.4, -999.0
08-03-2022, 00:01:14,    108,    3.0,    0.7,   0.00,   0.00, 1013.5,   59.1, -999.0
08-03-2022, 00:01:24,    141,    2.9,    0.8,   0.00,   0.00, 1013.5,   59.3, -999.0
08-03-2022, 00:01:34,    137,    1.8,    0.7,   0.00,   0.00, 1013.5,   59.3, -999.0
08-03-2022, 00:01:44,    135,    0.2,    0.7,   0.00,   0.00, 1013.4,   59.1, -999.0
08-03-2022, 00:01:54,    106,    1.8,    0.7,   0.00,   0.00, 1013.5,   59.3, -999.0
08-03-2022, 00:02:04,    111,    1.4,    0.8,   0.00,   0.00, 1013.5,   59.5, -999.0
08-03-2022, 00:02:13,    111,    0.0,    0.7,   0.00,   0.00, 1013.4,   59.2, -999.0
08-03-2022, 00:02:23,    111,    0.0,    0.7,   0.00,   0.00, 1013.3,   59.1, -999.0
08-03-2022, 00:02:34,    111,    0.1,    0.7,   0.00,   0.00, 1013.4,   59.4, -999.0
08-03-2022, 00:02:43,    111,    0.0,    0.8,   0.00,   0.00, 1013.4,   59.5, -999.0
08-03-2022, 00:02:53,    111,    0.2,    0.8,   0.00,   0.00, 1013.4,   59.6, -999.0
08-03-2022, 00:03:03,    111,    1.1,    0.8,   0.00,   0.00, 1013.5,   59.6, -999.0
08-03-2022, 00:03:13,    111,    0.0,    0.8,   0.00,   0.00, 1013.4,   59.2, -999.0
08-03-2022, 00:03:23,    130,    0.0,    0.8,   0.00,   0.00, 1013.4,   59.4, -999.0
08-03-2022, 00:03:33,    129,    0.5,    0.6,   0.00,   0.00, 1013.5,   59.7, -999.0
08-03-2022, 00:03:43,    127,    0.3,    0.8,   0.00,   0.00, 1013.4,   59.4, -999.0
08-03-2022, 00:03:53,    123,    1.1,    0.8,   0.00,   0.00, 1013.5,   59.7, -999.0
08-03-2022, 00:04:03,    122,    1.2,    0.8,   0.00,   0.00, 1013.5,   59.8, -999.0
08-03-2022, 00:04:13,    103,    1.6,    0.8,   0.00,   0.00, 1013.5,   59.8, -999.0
08-03-2022, 00:04:23,    132,    0.7,    0.7,   0.00,   0.00, 1013.5,   59.7, -999.0
08-03-2022, 00:04:33,    110,    1.3,    0.7,   0.00,   0.00, 1013.5,   59.7, -999.0
08-03-2022, 00:04:43,    114,    1.7,    0.8,   0.00,   0.00, 1013.5,   59.7, -999.0
08-03-2022, 00:04:53,    116,    1.3,    0.8,   0.00,   0.00, 1013.5,   59.8, -999.0
08-03-2022, 00:05:05,    106,    0.9,    0.8,   0.00,   0.00, 1013.5,   59.7, -999.0
08-03-2022, 00:05:13,    105,    1.0,    0.8,   0.00,   0.00, 1013.5,   59.9, -999.0
08-03-2022, 00:05:23,    130,    0.2,    0.8,   0.00,   0.00, 1013.4,   59.7, -999.0
08-03-2022, 00:05:32,    136,    0.3,    0.8,   0.00,   0.00, 1013.4,   59.6, -999.0
08-03-2022, 00:05:43,    133,    0.4,    0.7,   0.00,   0.00, 1013.4,   59.5, -999.0
08-03-2022, 00:05:53,    133,    0.2,    0.7,   0.00,   0.00, 1013.4,   59.5, -999.0
08-03-2022, 00:06:02,    117,    2.8,    0.8,   0.00,   0.00, 1013.5,   59.8, -999.0
08-03-2022, 00:06:13,    119,    2.1,    0.7,   0.00,   0.00, 1013.5,   59.7, -999.0
08-03-2022, 00:06:22,     97,    1.4,    0.7,   0.00,   0.00, 1013.5,   59.5, -999.0
08-03-2022, 00:06:32,    104,    1.3,    0.7,   0.00,   0.00, 1013.4,   59.5, -999.0
08-03-2022, 00:06:42,    129,    2.2,    0.7,   0.00,   0.00, 1013.5,   59.6, -999.0
08-03-2022, 00:06:52,    127,    1.7,    0.8,   0.00,   0.00, 1013.5,   59.7, -999.0
08-03-2022, 00:07:02,    123,    2.0,    0.8,   0.00,   0.00, 1013.5,   59.8, -999.0
08-03-2022, 00:07:12,     97,    2.5,    0.7,   0.00,   0.00, 1013.5,   59.8, -999.0
08-03-2022, 00:07:22,    101,    1.8,    0.8,   0.00,   0.00, 1013.5,   59.8, -999.0
08-03-2022, 00:07:32,    104,    3.6,    0.9,   0.00,   0.00, 1013.4,   59.9, -999.0
08-03-2022, 00:07:42,    119,    2.7,    0.9,   0.00,   0.00, 1013.5,   59.9, -999.0
08-03-2022, 00:07:52,     95,    1.3,    0.9,   0.00,   0.00, 1013.5,   59.8, -999.0
08-03-2022, 00:08:02,    102,    1.2,    0.9,   0.00,   0.00, 1013.5,   59.5, -999.0
08-03-2022, 00:08:12,    100,    0.2,    0.9,   0.00,   0.00, 1013.4,   59.3, -999.0
08-03-2022, 00:08:22,    100,    0.3,    0.7,   0.00,   0.00, 1013.4,   59.3, -999.0
08-03-2022, 00:08:32,    127,    1.1,    0.8,   0.00,   0.00, 1013.5,   59.4, -999.0
08-03-2022, 00:08:42,    105,    0.9,    0.8,   0.00,   0.00, 1013.4,   59.4, -999.0
08-03-2022, 00:08:52,    105,    0.3,    0.8,   0.00,   0.00, 1013.4,   59.6, -999.0
08-03-2022, 00:09:02,    105,    1.1,    0.8,   0.00,   0.00, 1013.4,   59.6, -999.0
08-03-2022, 00:09:11,    110,    4.3,    0.9,   0.00,   0.00, 1013.5,   59.6, -999.0
08-03-2022, 00:09:22,     87,    3.2,    0.7,   0.00,   0.00, 1013.4,   59.1, -999.0
08-03-2022, 00:09:32,    105,    2.6,    0.7,   0.00,   0.00, 1013.5,   59.2, -999.0
08-03-2022, 00:09:41,    111,    2.6,    0.8,   0.00,   0.00, 1013.5,   59.4, -999.0
08-03-2022, 00:09:51,     96,    1.6,    0.8,   0.00,   0.00, 1013.4,   59.6, -999.0
08-03-2022, 00:10:01,    148,    1.5,    0.8,   0.00,   0.00, 1013.4,   59.6, -999.0
08-03-2022, 00:10:11,    136,    1.2,    0.8,   0.00,   0.00, 1013.4,   59.5, -999.0
08-03-2022, 00:10:21,    123,    0.4,    0.6,   0.00,   0.00, 1013.4,   59.1, -999.0
08-03-2022, 00:10:31,    122,    0.4,    0.7,   0.00,   0.00, 1013.4,   59.2, -999.0
08-03-2022, 00:10:41,    123,    0.0,    0.6,   0.00,   0.00, 1013.3,   59.3, -999.0
08-03-2022, 00:10:51,    123,    0.3,    0.6,   0.00,   0.00, 1013.4,   59.6, -999.0
08-03-2022, 00:11:01,     95,    1.3,    0.6,   0.00,   0.00, 1013.4,   59.7, -999.0
08-03-2022, 00:11:11,     96,    1.5,    0.8,   0.00,   0.00, 1013.4,   59.7, -999.0
08-03-2022, 00:11:21,    110,    1.0,    0.7,   0.00,   0.00, 1013.4,   59.8, -999.0
08-03-2022, 00:11:31,    138,    1.7,    0.7,   0.00,   0.00, 1013.4,   59.8, -999.0
08-03-2022, 00:11:41,    121,    1.9,    0.7,   0.00,   0.00, 1013.4,   59.5, -999.0
08-03-2022, 00:11:51,    112,    1.1,    0.6,   0.00,   0.00, 1013.4,   59.5, -999.0
08-03-2022, 00:12:01,    117,    0.2,    0.6,   0.00,   0.00, 1013.3,   59.2, -999.0
08-03-2022, 00:12:11,    113,    1.0,    0.4,   0.00,   0.00, 1013.4,   59.8, -999.0
08-03-2022, 00:12:21,    109,    2.9,    0.6,   0.00,   0.00, 1013.4,   59.8, -999.0
08-03-2022, 00:12:31,    109,    1.7,    0.7,   0.00,   0.00, 1013.4,   59.8, -999.0
08-03-2022, 00:12:41,    104,    0.8,    0.7,   0.00,   0.00, 1013.4,   59.8, -999.0
08-03-2022, 00:12:50,    110,    1.8,    0.7,   0.00,   0.00, 1013.3,   60.1, -999.0
08-03-2022, 00:13:01,    108,    1.0,    0.7,   0.00,   0.00, 1013.3,   59.9, -999.0
08-03-2022, 00:13:11,    107,    0.0,    0.6,   0.00,   0.00, 1013.2,   59.6, -999.0
08-03-2022, 00:13:20,    112,    0.1,    0.7,   0.00,   0.00, 1013.3,   59.8, -999.0
08-03-2022, 00:13:30,    141,    1.2,    0.8,   0.00,   0.00, 1013.3,   59.8, -999.0
08-03-2022, 00:13:41,    100,    0.8,    0.7,   0.00,   0.00, 1013.4,   59.6, -999.0
08-03-2022, 00:13:50,    137,    0.9,    0.7,   0.00,   0.00, 1013.3,   59.7, -999.0
08-03-2022, 00:14:00,    137,    0.0,    0.7,   0.00,   0.00, 1013.2,   59.4, -999.0
08-03-2022, 00:14:10,    137,    0.2,    0.6,   0.00,   0.00, 1013.2,   59.5, -999.0
08-03-2022, 00:14:20,    137,    0.1,    0.5,   0.00,   0.00, 1013.3,   59.7, -999.0
08-03-2022, 00:14:30,    134,    0.0,    0.7,   0.00,   0.00, 1013.2,   59.9, -999.0
08-03-2022, 00:14:40,    134,    0.0,    0.7,   0.00,   0.00, 1013.2,   60.0, -999.0
08-03-2022, 00:14:50,    134,    0.0,    0.7,   0.00,   0.00, 1013.2,   59.9, -999.0
08-03-2022, 00:15:00,    133,    0.6,    0.8,   0.00,   0.00, 1013.3,   60.0, -999.0
08-03-2022, 00:15:10,    133,    0.3,    0.7,   0.00,   0.00, 1013.3,   59.9, -999.0
08-03-2022, 00:15:20,    132,    1.4,    0.7,   0.00,   0.00, 1013.3,   59.7, -999.0
08-03-2022, 00:15:30,    105,    2.0,    0.7,   0.00,   0.00, 1013.3,   59.7, -999.0
08-03-2022, 00:15:40,     62,    4.0,    0.7,   0.00,   0.00, 1013.3,   59.7, -999.0
08-03-2022, 00:15:50,    142,    2.6,    0.6,   0.00,   0.00, 1013.3,   59.8, -999.0
08-03-2022, 00:15:59,    143,    1.6,    0.6,   0.00,   0.00, 1013.3,   59.9, -999.0
08-03-2022, 00:16:10,    140,    0.9,    0.6,   0.00,   0.00, 1013.3,   59.7, -999.0
08-03-2022, 00:16:20,    104,    0.6,    0.7,   0.00,   0.00, 1013.3,   59.7, -999.0
08-03-2022, 00:16:29,    104,    1.6,    0.7,   0.00,   0.00, 1013.3,   59.8, -999.0
08-03-2022, 00:16:39,    100,    0.1,    0.6,   0.00,   0.00, 1013.2,   59.5, -999.0
08-03-2022, 00:16:50,    103,    1.3,    0.8,   0.00,   0.00, 1013.3,   59.8, -999.0
08-03-2022, 00:16:59,    140,    1.9,    0.8,   0.00,   0.00, 1013.3,   59.9, -999.0
08-03-2022, 00:17:09,    147,    2.5,    0.7,   0.00,   0.00, 1013.3,   59.9, -999.0
08-03-2022, 00:17:20,    100,    2.2,    0.6,   0.00,   0.00, 1013.3,   59.6, -999.0
08-03-2022, 00:17:29,    125,    1.6,    0.7,   0.00,   0.00, 1013.3,   59.7, -999.0
08-03-2022, 00:17:39,    106,    1.8,    0.7,   0.00,   0.00, 1013.3,   59.8, -999.0
08-03-2022, 00:17:49,    102,    0.0,    0.6,   0.00,   0.00, 1013.2,   59.6, -999.0
08-03-2022, 00:17:59,    116,    0.2,    0.6,   0.00,   0.00, 1013.2,   59.6, -999.0
08-03-2022, 00:18:09,    128,    0.5,    0.7,   0.00,   0.00, 1013.3,   59.9, -999.0
08-03-2022, 00:18:19,    131,    1.9,    0.7,   0.00,   0.00, 1013.3,   59.9, -999.0
08-03-2022, 00:18:29,    131,    0.1,    0.7,   0.00,   0.00, 1013.2,   59.6, -999.0
08-03-2022, 00:18:39,    130,    0.1,    0.6,   0.00,   0.00, 1013.2,   59.7, -999.0
08-03-2022, 00:18:49,    122,    0.5,    0.7,   0.00,   0.00, 1013.2,   59.7, -999.0
08-03-2022, 00:18:59,    132,    1.2,    0.6,   0.00,   0.00, 1013.3,   60.1, -999.0
08-03-2022, 00:19:09,    131,    0.2,    0.6,   0.00,   0.00, 1013.2,   60.0, -999.0
08-03-2022, 00:19:19,    131,    0.0,    0.6,   0.00,   0.00, 1013.2,   59.7, -999.0
08-03-2022, 00:19:29,    104,    0.1,    0.6,   0.00,   0.00, 1013.1,   59.9, -999.0
08-03-2022, 00:19:38,    108,    2.7,    0.5,   0.00,   0.00, 1013.3,   60.2, -999.0
08-03-2022, 00:19:49,    116,    1.4,    0.7,   0.00,   0.00, 1013.3,   60.1, -999.0
08-03-2022, 00:19:59,    124,    2.1,    0.7,   0.00,   0.00, 1013.3,   60.2, -999.0
08-03-2022, 00:20:08,    114,    1.7,    0.6,   0.00,   0.00, 1013.3,   60.3, -999.0
08-03-2022, 00:20:18,    114,    3.4,    0.7,   0.00,   0.00, 1013.3,   60.2, -999.0
08-03-2022, 00:20:29,    157,    3.4,    0.7,   0.00,   0.00, 1013.3,   60.2, -999.0
08-03-2022, 00:20:38,    130,    3.1,    0.7,   0.00,   0.00, 1013.3,   59.9, -999.0
08-03-2022, 00:20:48,    106,    2.1,    0.7,   0.00,   0.00, 1013.3,   59.8, -999.0
08-03-2022, 00:20:59,    103,    0.7,    0.7,   0.00,   0.00, 1013.2,   59.7, -999.0
08-03-2022, 00:21:08,    123,    1.4,    0.6,   0.00,   0.00, 1013.2,   59.7, -999.0
08-03-2022, 00:21:18,    136,    1.8,    0.7,   0.00,   0.00, 1013.3,   59.9, -999.0
08-03-2022, 00:21:28,    108,    1.0,    0.7,   0.00,   0.00, 1013.3,   59.8, -999.0
08-03-2022, 00:21:38,    126,    2.8,    0.6,   0.00,   0.00, 1013.3,   59.9, -999.0
08-03-2022, 00:21:48,    124,    3.6,    0.6,   0.00,   0.00, 1013.3,   59.8, -999.0
08-03-2022, 00:21:58,    133,    2.0,    0.7,   0.00,   0.00, 1013.3,   59.8, -999.0
08-03-2022, 00:22:08,    104,    1.6,    0.7,   0.00,   0.00, 1013.3,   59.9, -999.0
08-03-2022, 00:22:18,    101,    2.0,    0.7,   0.00,   0.00, 1013.2,   59.9, -999.0
08-03-2022, 00:22:28,    114,    1.6,    0.7,   0.00,   0.00, 1013.2,   60.0, -999.0
08-03-2022, 00:22:38,    114,    2.2,    0.6,   0.00,   0.00, 1013.3,   60.0, -999.0
08-03-2022, 00:22:48,    109,    3.7,    0.7,   0.00,   0.00, 1013.2,   60.1, -999.0
08-03-2022, 00:22:58,    111,    1.9,    0.7,   0.00,   0.00, 1013.3,   60.0, -999.0
08-03-2022, 00:23:08,    106,    1.8,    0.7,   0.00,   0.00, 1013.3,   59.9, -999.0
08-03-2022, 00:23:18,    103,    1.1,    0.8,   0.00,   0.00, 1013.2,   59.9, -999.0
08-03-2022, 00:23:28,    110,    0.6,    0.8,   0.00,   0.00, 1013.2,   59.9, -999.0
08-03-2022, 00:23:38,    118,    1.6,    0.7,   0.00,   0.00, 1013.2,   59.9, -999.0
08-03-2022, 00:23:47,    112,    3.7,    0.7,   0.00,   0.00, 1013.3,   59.8, -999.0
08-03-2022, 00:23:57,     78,    2.3,    0.8,   0.00,   0.00, 1013.3,   59.8, -999.0
08-03-2022, 00:24:08,    125,    1.5,    0.8,   0.00,   0.00, 1013.2,   59.9, -999.0
08-03-2022, 00:24:17,    136,    3.1,    0.7,   0.00,   0.00, 1013.3,   59.7, -999.0
08-03-2022, 00:24:27,    146,    0.9,    0.7,   0.00,   0.00, 1013.2,   59.6, -999.0
08-03-2022, 00:24:37,     86,    1.1,    0.7,   0.00,   0.00, 1013.2,   59.6, -999.0
08-03-2022, 00:24:47,    118,    1.1,    0.8,   0.00,   0.00, 1013.2,   59.9, -999.0
08-03-2022, 00:24:57,    118,    1.4,    0.8,   0.00,   0.00, 1013.3,   60.1, -999.0
08-03-2022, 00:25:07,    117,    1.1,    0.7,   0.00,   0.00, 1013.3,   60.0, -999.0
08-03-2022, 00:25:17,    117,    0.8,    0.8,   0.00,   0.00, 1013.2,   60.0, -999.0
08-03-2022, 00:25:27,    138,    1.1,    0.8,   0.00,   0.00, 1013.2,   59.9, -999.0
08-03-2022, 00:25:37,    138,    2.2,    0.8,   0.00,   0.00, 1013.3,   59.8, -999.0
08-03-2022, 00:25:47,    138,    0.8,    0.7,   0.00,   0.00, 1013.3,   59.8, -999.0
08-03-2022, 00:25:57,    137,    0.1,    0.6,   0.00,   0.00, 1013.2,   59.5, -999.0
08-03-2022, 00:26:07,    137,    0.8,    0.6,   0.00,   0.00, 1013.2,   59.6, -999.0
08-03-2022, 00:26:17,    136,    0.9,    0.7,   0.00,   0.00, 1013.3,   59.9, -999.0
08-03-2022, 00:26:27,    113,    1.1,    0.7,   0.00,   0.00, 1013.2,   59.9, -999.0
08-03-2022, 00:26:37,    115,    1.0,    0.7,   0.00,   0.00, 1013.3,   60.1, -999.0
08-03-2022, 00:26:47,    121,    0.3,    0.7,   0.00,   0.00, 1013.2,   60.3, -999.0
08-03-2022, 00:26:59,    140,    1.1,    0.7,   0.00,   0.00, 1013.2,   60.0, -999.0
08-03-2022, 00:27:06,    132,    1.4,    0.7,   0.00,   0.00, 1013.2,   60.1, -999.0
08-03-2022, 00:27:17,    134,    0.8,    0.6,   0.00,   0.00, 1013.2,   59.8, -999.0
08-03-2022, 00:27:27,    105,    1.1,    0.6,   0.00,   0.00, 1013.2,   60.0, -999.0
08-03-2022, 00:27:36,    133,    0.9,    0.7,   0.00,   0.00, 1013.2,   60.1, -999.0
08-03-2022, 00:27:47,    110,    2.6,    0.6,   0.00,   0.00, 1013.2,   60.2, -999.0
08-03-2022, 00:27:56,    111,    2.6,    0.7,   0.00,   0.00, 1013.2,   60.3, -999.0
08-03-2022, 00:28:06,    114,    2.0,    0.9,   0.00,   0.00, 1013.3,   60.3, -999.0
08-03-2022, 00:28:16,    114,    0.7,    0.9,   0.00,   0.00, 1013.2,   60.2, -999.0
08-03-2022, 00:28:26,    124,    1.0,    0.7,   0.00,   0.00, 1013.2,   60.0, -999.0
08-03-2022, 00:28:36,     95,    1.8,    0.8,   0.00,   0.00, 1013.2,   59.9, -999.0
08-03-2022, 00:28:46,    114,    4.0,    0.7,   0.00,   0.00, 1013.2,   59.8, -999.0
08-03-2022, 00:28:56,     99,    2.3,    0.7,   0.00,   0.00, 1013.2,   59.9, -999.0
08-03-2022, 00:29:06,    106,    2.1,    0.6,   0.00,   0.00, 1013.3,   59.8, -999.0
08-03-2022, 00:29:16,    107,    1.6,    0.7,   0.00,   0.00, 1013.2,   59.9, -999.0
08-03-2022, 00:29:26,    129,    2.0,    0.7,   0.00,   0.00, 1013.2,   59.9, -999.0
08-03-2022, 00:29:36,    118,    2.5,    0.7,   0.00,   0.00, 1013.2,   60.0, -999.0
08-03-2022, 00:29:46,    112,    1.6,    0.7,   0.00,   0.00, 1013.2,   59.8, -999.0
08-03-2022, 00:29:56,    113,    0.6,    0.7,   0.00,   0.00, 1013.2,   60.0, -999.0
08-03-2022, 00:30:06,    122,    1.2,    0.7,   0.00,   0.00, 1013.2,   60.1, -999.0
08-03-2022, 00:30:16,    121,    1.3,    0.7,   0.00,   0.00, 1013.2,   60.1, -999.0
08-03-2022, 00:30:26,    152,    1.1,    0.6,   0.00,   0.00, 1013.2,   60.0, -999.0
08-03-2022, 00:30:36,    128,    0.7,    0.5,   0.00,   0.00, 1013.1,   60.0, -999.0
08-03-2022, 00:30:45,    125,    0.3,    0.5,   0.00,   0.00, 1013.1,   59.8, -999.0
08-03-2022, 00:30:56,    117,    1.6,    0.5,   0.00,   0.00, 1013.2,   60.1, -999.0
08-03-2022, 00:31:06,    116,    0.7,    0.5,   0.00,   0.00, 1013.1,   60.2, -999.0
08-03-2022, 00:31:15,    147,    0.5,    0.5,   0.00,   0.00, 1013.1,   60.3, -999.0
08-03-2022, 00:31:25,    147,    0.0,    0.5,   0.00,   0.00, 1013.0,   59.9, -999.0
08-03-2022, 00:31:35,     96,    2.2,    0.5,   0.00,   0.00, 1013.1,   60.4, -999.0
08-03-2022, 00:31:45,    126,    1.8,    0.5,   0.00,   0.00, 1013.1,   60.4, -999.0
08-03-2022, 00:31:55,    142,    1.2,    0.7,   0.00,   0.00, 1013.1,   60.5, -999.0
08-03-2022, 00:32:05,    110,    1.0,    0.6,   0.00,   0.00, 1013.2,   60.7, -999.0
08-03-2022, 00:32:15,    110,    1.0,    0.6,   0.00,   0.00, 1013.1,   60.6, -999.0
08-03-2022, 00:32:25,    110,    0.8,    0.6,   0.00,   0.00, 1013.1,   60.6, -999.0
08-03-2022, 00:32:35,    110,    0.2,    0.6,   0.00,   0.00, 1013.1,   60.4, -999.0
08-03-2022, 00:32:45,    109,    0.0,    0.7,   0.00,   0.00, 1013.0,   60.4, -999.0
08-03-2022, 00:32:55,    114,    0.6,    0.6,   0.00,   0.00, 1013.0,   60.5, -999.0
08-03-2022, 00:33:05,    136,    1.4,    0.7,   0.00,   0.00, 1013.1,   60.6, -999.0
08-03-2022, 00:33:15,    147,    1.7,    0.6,   0.00,   0.00, 1013.1,   60.5, -999.0
08-03-2022, 00:33:25,    133,    1.2,    0.5,   0.00,   0.00, 1013.1,   60.3, -999.0
08-03-2022, 00:33:35,    134,    0.7,    0.4,   0.00,   0.00, 1013.1,   60.3, -999.0
08-03-2022, 00:33:45,    134,    1.8,    0.6,   0.00,   0.00, 1013.1,   60.6, -999.0
08-03-2022, 00:33:55,    116,    1.4,    0.6,   0.00,   0.00, 1013.1,   60.8, -999.0
08-03-2022, 00:34:06,    105,    2.9,    0.5,   0.00,   0.00, 1013.1,   60.7, -999.0
08-03-2022, 00:34:15,    125,    1.8,    0.6,   0.00,   0.00, 1013.1,   60.7, -999.0
08-03-2022, 00:34:24,    132,    3.0,    0.6,   0.00,   0.00, 1013.1,   60.7, -999.0
08-03-2022, 00:34:35,    109,    1.9,    0.6,   0.00,   0.00, 1013.1,   60.6, -999.0
08-03-2022, 00:34:44,     97,    2.4,    0.6,   0.00,   0.00, 1013.1,   60.5, -999.0
08-03-2022, 00:34:54,    130,    1.9,    0.6,   0.00,   0.00, 1013.1,   60.6, -999.0
08-03-2022, 00:35:05,    172,    1.6,    0.7,   0.00,   0.00, 1013.1,   60.7, -999.0
08-03-2022, 00:35:14,    127,    1.3,    0.7,   0.00,   0.00, 1013.1,   60.7, -999.0
08-03-2022, 00:35:24,    107,    3.1,    0.6,   0.00,   0.00, 1013.0,   60.5, -999.0
08-03-2022, 00:35:34,    131,    1.4,    0.7,   0.00,   0.00, 1013.1,   60.5, -999.0
08-03-2022, 00:35:44,    109,    1.3,    0.6,   0.00,   0.00, 1013.1,   60.5, -999.0
08-03-2022, 00:35:54,    109,    0.1,    0.4,   0.00,   0.00, 1013.0,   60.2, -999.0
08-03-2022, 00:36:04,    124,    1.5,    0.6,   0.00,   0.00, 1013.0,   60.3, -999.0
08-03-2022, 00:36:14,    110,    3.5,    0.6,   0.00,   0.00, 1013.1,   60.4, -999.0
08-03-2022, 00:36:24,     88,    1.4,    0.7,   0.00,   0.00, 1013.1,   60.3, -999.0
08-03-2022, 00:36:34,    117,    2.1,    0.5,   0.00,   0.00, 1013.1,   60.4, -999.0
08-03-2022, 00:36:44,     98,    1.9,    0.7,   0.00,   0.00, 1013.1,   60.6, -999.0
08-03-2022, 00:36:54,     96,    0.5,    0.8,   0.00,   0.00, 1013.0,   60.2, -999.0
08-03-2022, 00:37:04,    114,    0.4,    0.6,   0.00,   0.00, 1013.0,   60.3, -999.0
08-03-2022, 00:37:14,    125,    0.8,    0.6,   0.00,   0.00, 1013.0,   60.2, -999.0
08-03-2022, 00:37:24,    129,    1.7,    0.7,   0.00,   0.00, 1013.1,   60.3, -999.0
08-03-2022, 00:37:34,    126,    1.1,    0.7,   0.00,   0.00, 1013.1,   60.2, -999.0
08-03-2022, 00:37:44,    126,    0.1,    0.6,   0.00,   0.00, 1013.0,   60.3, -999.0
08-03-2022, 00:37:54,    112,    1.4,    0.6,   0.00,   0.00, 1013.1,   60.6, -999.0
08-03-2022, 00:38:03,    114,    1.9,    0.6,   0.00,   0.00, 1013.1,   60.6, -999.0
08-03-2022, 00:38:14,    111,    2.9,    0.7,   0.00,   0.00, 1013.1,   60.4, -999.0
08-03-2022, 00:38:24,    120,    2.0,    0.7,   0.00,   0.00, 1013.1,   60.5, -999.0
08-03-2022, 00:38:33,    117,    0.9,    0.7,   0.00,   0.00, 1013.0,   60.4, -999.0
08-03-2022, 00:38:43,    120,    1.7,    0.7,   0.00,   0.00, 1013.1,   60.3, -999.0
08-03-2022, 00:38:53,    119,    1.0,    0.8,   0.00,   0.00, 1013.1,   60.3, -999.0
08-03-2022, 00:39:03,    128,    1.8,    0.8,   0.00,   0.00, 1013.1,   60.5, -999.0
08-03-2022, 00:39:13,    128,    1.5,    0.8,   0.00,   0.00, 1013.1,   60.2, -999.0
08-03-2022, 00:39:23,    130,    1.8,    0.6,   0.00,   0.00, 1013.0,   60.1, -999.0
08-03-2022, 00:39:33,    129,    1.8,    0.6,   0.00,   0.00, 1013.1,   60.2, -999.0
08-03-2022, 00:39:43,    131,    3.0,    0.7,   0.00,   0.00, 1013.1,   60.3, -999.0
08-03-2022, 00:39:53,    105,    2.2,    0.6,   0.00,   0.00, 1013.1,   60.3, -999.0
08-03-2022, 00:40:03,    103,    2.8,    0.8,   0.00,   0.00, 1013.1,   60.2, -999.0
08-03-2022, 00:40:13,     97,    1.5,    0.7,   0.00,   0.00, 1013.0,   60.4, -999.0
08-03-2022, 00:40:23,    102,    1.3,    0.7,   0.00,   0.00, 1013.0,   60.3, -999.0
08-03-2022, 00:40:33,    108,    3.8,    0.7,   0.00,   0.00, 1013.1,   60.2, -999.0
08-03-2022, 00:40:43,    107,    1.1,    0.7,   0.00,   0.00, 1013.0,   60.0, -999.0
08-03-2022, 00:40:53,     66,    1.2,    0.7,   0.00,   0.00, 1013.1,   60.0, -999.0
08-03-2022, 00:41:03,    106,    0.3,    0.6,   0.00,   0.00, 1013.0,   60.0, -999.0
08-03-2022, 00:41:12,    118,    2.5,    0.7,   0.00,   0.00, 1013.1,   60.2, -999.0
08-03-2022, 00:41:23,    110,    2.6,    0.6,   0.00,   0.00, 1013.1,   60.2, -999.0
08-03-2022, 00:41:33,    106,    3.2,    0.7,   0.00,   0.00, 1013.0,   60.2, -999.0
08-03-2022, 00:41:42,    130,    4.0,    0.7,   0.00,   0.00, 1013.1,   60.3, -999.0
08-03-2022, 00:41:53,    121,    5.0,    0.6,   0.00,   0.00, 1013.0,   60.2, -999.0
08-03-2022, 00:42:03,    139,    5.2,    0.6,   0.00,   0.00, 1013.0,   60.0, -999.0
08-03-2022, 00:42:12,     67,    1.9,    0.5,   0.00,   0.00, 1013.0,   59.9, -999.0
08-03-2022, 00:42:22,    129,    1.1,    0.6,   0.00,   0.00, 1013.0,   60.2, -999.0
08-03-2022, 00:42:33,    113,    1.4,    0.5,   0.00,   0.00, 1013.0,   60.3, -999.0
08-03-2022, 00:42:42,    112,    0.6,    0.6,   0.00,   0.00, 1013.0,   60.3, -999.0
08-03-2022, 00:42:52,    113,    0.2,    0.6,   0.00,   0.00, 1013.0,   60.4, -999.0
08-03-2022, 00:43:02,    117,    1.8,    0.6,   0.00,   0.00, 1013.0,   60.6, -999.0
08-03-2022, 00:43:12,    115,    1.1,    0.7,   0.00,   0.00, 1013.0,   60.6, -999.0
08-03-2022, 00:43:22,    110,    1.1,    0.7,   0.00,   0.00, 1013.0,   60.6, -999.0
08-03-2022, 00:43:32,    109,    2.7,    0.6,   0.00,   0.00, 1013.0,   60.5, -999.0
08-03-2022, 00:43:42,    117,    2.3,    0.6,   0.00,   0.00, 1013.0,   60.5, -999.0
08-03-2022, 00:43:52,    112,    1.1,    0.6,   0.00,   0.00, 1013.0,   60.4, -999.0
08-03-2022, 00:44:02,    126,    0.7,    0.5,   0.00,   0.00, 1013.0,   60.4, -999.0
08-03-2022, 00:44:12,    129,    2.0,    0.4,   0.00,   0.00, 1013.0,   60.5, -999.0
08-03-2022, 00:44:22,    120,    3.1,    0.5,   0.00,   0.00, 1013.0,   60.4, -999.0
08-03-2022, 00:44:32,    149,    2.7,    0.6,   0.00,   0.00, 1013.0,   60.5, -999.0
08-03-2022, 00:44:42,    117,    2.0,    0.6,   0.00,   0.00, 1013.0,   60.5, -999.0
08-03-2022, 00:44:51,    153,    2.8,    0.6,   0.00,   0.00, 1013.0,   60.4, -999.0
08-03-2022, 00:45:02,    103,    2.2,    0.6,   0.00,   0.00, 1013.0,   60.5, -999.0
08-03-2022, 00:45:12,    104,    1.5,    0.7,   0.00,   0.00, 1013.0,   60.4, -999.0
08-03-2022, 00:45:21,    108,    1.9,    0.7,   0.00,   0.00, 1013.0,   60.5, -999.0
08-03-2022, 00:45:32,    120,    2.6,    0.7,   0.00,   0.00, 1013.0,   60.5, -999.0
08-03-2022, 00:45:42,    145,    1.4,    0.7,   0.00,   0.00, 1013.0,   60.5, -999.0
08-03-2022, 00:45:51,    126,    2.2,    0.6,   0.00,   0.00, 1012.9,   60.4, -999.0
08-03-2022, 00:46:01,    142,    1.5,    0.5,   0.00,   0.00, 1012.9,   60.3, -999.0
08-03-2022, 00:46:12,    114,    2.3,    0.6,   0.00,   0.00, 1013.0,   60.2, -999.0
08-03-2022, 00:46:21,    122,    2.4,    0.6,   0.00,   0.00, 1013.0,   60.3, -999.0
08-03-2022, 00:46:31,    110,    2.0,    0.6,   0.00,   0.00, 1013.0,   60.3, -999.0
08-03-2022, 00:46:41,    110,    1.4,    0.6,   0.00,   0.00, 1013.0,   60.4, -999.0